Regional Weather Roundup
Issued by NWS

Home | Current Version | Previous Version | Text Only | Print | Product List | Glossary On
Versions: 1 2 3 4 5 6 7 8 9 10 11 12 13 14 15 16 17 18 19 20 21 22 23 24 25 26 27 28 29 30 31 32 33 34 35 36 37 38 39 40 41 42 43 44 45 46 47 48 49 50
000
ASHW40 PHFO 090743
RWRHI

WEATHER ROUNDUP FOR HAWAII
NATIONAL WEATHER SERVICE HONOLULU HI
900 PM HST THU DEC 08 2016

THIS IS AN AUTOMATED REPORT THAT HAS NOT BEEN QUALITY CONTROLLED.

NOTE..."FAIR" INDICATES FEW OR NO CLOUDS BELOW 12,000 FEET WITH NO
SIGNIFICANT WEATHER AND/OR OBSTRUCTIONS TO VISIBILITY.

* - THESE SITES REPORT LIMITED FIELDS

HIZ001>004-090800-
KAUAI-NIIHAU-

CITY           SKY/WX    TMP DP  RH WIND       PRES   REMARKS
LIHUE APT      CLOUDY    70  65  84 W10       29.96R
PORT ALLEN*      N/A     70 N/A N/A VRB6        N/A
POIPU*           N/A     70 N/A N/A N2          N/A
PRINCEVILLE*     N/A     70 N/A N/A SE1         N/A
KOKOLE POINT*  NOT AVBL
MOLOAA DAIRY*    N/A     70  64  83 S1          N/A
WAIMEA HTS*      N/A     72  63  73 SE1G7       N/A
PUU OPAE*      NOT AVBL
PUU LUA*       NOT AVBL
MAKAHA RIDGE*    N/A     70  57  64 W1          N/A
$$

HIZ005>011-090800-
OAHU-

CITY           SKY/WX    TMP DP  RH WIND       PRES   REMARKS
HONOLULU       LGT RAIN  74  69  85 N5        29.97R
KALAELOA       RAIN      71  68  90 NE3       29.98R
KANEOHE MCB    LGT RAIN  72  70  93 NW5       29.95R
WHEELER FIELD  PTCLDY    68  67  98 CALM      29.98
BELLOWS*         N/A    N/A N/A N/A NW1         N/A
KAHUKU*          N/A    N/A N/A N/A NW1         N/A
WHEELER*         N/A    N/A N/A N/A NE2         N/A
WAIANAE HARBOR   N/A    N/A N/A N/A E3          N/A
DILLINGHAM*      N/A     70  66  88 MISG        N/A
KAHUKU TRN*      N/A     75  73  94 N3          N/A
KAWAILOA*        N/A     66  64  94 E3          N/A
KII*             N/A     70  70 100 SW3         N/A
MAKUA RANGE*     N/A     75  73  94 E1G8        N/A
OAHU FOREST NW NOT AVBL
SCHOFIELD BRK*   N/A     66  64  94 MISG        N/A
SCHOFIELD S*   NOT AVBL
WAIANAE VLY*   NOT AVBL
KUAOKALA*        N/A     70  66  88 E6          N/A
HONOULIUULI*   NOT AVBL
MOKUOLOE IS*   NOT AVBL
PALEHUA*         N/A    N/A N/A N/A NE7         N/A
WAIAWA PHB*    NOT AVBL
$$

HIZ012>013-090800-
MOLOKAI-

CITY           SKY/WX    TMP DP  RH WIND       PRES   REMARKS
MOLOKAI AIRPT  LGT RAIN  73  70  90 N6        29.98R
KALAUPAPA      NOT AVBL
MAKAPULAPAI*     N/A     72  72 100 E2          N/A
MOLOKAI 1*     NOT AVBL
PUU ALII*        N/A     60  60 100 N1          N/A
$$

HIZ016-090800-
KAHOOLAWE-

CITY           SKY/WX    TMP DP  RH WIND       PRES   REMARKS
KAHOOLAWE*     NOT AVBL
HAKIOAWA*        N/A     70  70 100 MISG      30.38S
HONOKANAIA*      N/A     74  71  91 NW7G15    29.89R
KANELOA*         N/A     72  70  94 NW10      30.01
KEALIALALO*    NOT AVBL
LUA MAKIKA*    NOT AVBL
$$

HIZ014>015-090800-
LANAI-

CITY           SKY/WX    TMP DP  RH WIND       PRES   REMARKS
LANAI CITY     LGT RAIN  68  68 100 NW6       30.03S VSB 3/4
LANAI 1*       NOT AVBL
$$

HIZ017>028-090800-
MAUI-

CITY           SKY/WX    TMP DP  RH WIND       PRES   REMARKS
KAHULUI        CLOUDY    73  71  93 CALM      29.96R
KAPALUA-W MAUI NOT AVBL
HANA AIRPORT   CLOUDY    72  70  94 SW5       30.00R
HANA*            N/A     73 N/A N/A S1G8        N/A
HALEAKALA SUMM   N/A     46  46 100 SW2G31      N/A
MAALAEA BAY*     N/A     72 N/A N/A NW1         N/A
HALEAKALA*     NOT AVBL
KAUPO GAP*       N/A     73  73 100 S3G10       N/A
KULA 1*          N/A     54  54 100 E3          N/A
$$

HIZ023>026-090800-
BIG ISLAND OF HAWAII COAST AND LOWER SLOPES-

CITY           SKY/WX    TMP DP  RH WIND       PRES   REMARKS
KAILUA KONA    CLOUDY    75  72  90 N13       29.94R
HILO           CLOUDY    72  66  81 S3        29.98R
HONOKAA*         N/A     68 N/A N/A VRB1        N/A
KAWAIHAE MWT*    N/A     73 N/A N/A NW5         N/A
KAWAIHAE*        N/A     73 N/A N/A N2        29.96S
SOUTH POINT*     N/A     68 N/A N/A N9          N/A
UPOLU AIRPORT* NOT AVBL
KAMUELA*       CLOUDY    64  64 100 E5        30.07S
HAKALAU*         N/A    N/A N/A N/A SW3         N/A
KALOKO-HONOKO*   N/A     75  70  83 N10       29.93R
PALI 2*          N/A     61  57  88 S5          N/A
KEALAKOMO*       N/A     73  66  78 NW3         N/A
KAUPULEHU*       N/A     70  66  88 VRB3        N/A
KAPAPALA*      NOT AVBL
LOWER KAHUKU*    N/A     59  57  94 N2          N/A
PUHE CS*         N/A     73  70  88 NW2         N/A
PUHO CS*         N/A     75  68  77 E1          N/A
PTA KEAMUKU*     N/A     63  63 100 CALM        N/A
WAIKOLOA*        N/A     70  68  94 W2          N/A
$$

HIZ027>028-090800-
BIG ISLAND OF HAWAII INTERIOR AND SUMMMITS-

CITY           SKY/WX    TMP DP  RH WIND       PRES   REMARKS
BRADSHAW FIELD CLOUDY    56  55  99 CALM      30.28S
MK VISITOR CEN   N/A     54  14  20 E3          N/A
MAUNA KEA*       N/A     32  32 100 S8          N/A  WCI  25
MAUNA LOA*       N/A     43  34  70 MISG        N/A
MAUNA LOA 1*   NOT AVBL
PTA KIPUKA*      N/A     64  64 100 E2          N/A
PTA RANGE 17*    N/A     59  57  94 CALM        N/A
PTA WEST*        N/A     61  59  94 S2          N/A
NENE CABIN*      N/A    N/A N/A N/A N3          N/A
AHUMOA*          N/A     54  54 100 E3          N/A
PTA PORTABLE*  NOT AVBL
PUU MALI*        N/A     55  55 100 SW7         N/A
$$

HIC003-090800-
NORTHWEST ISLANDS-

CITY           SKY/WX    TMP DP  RH WIND       PRES   REMARKS
MIDWAY ISLAND  PTCLDY    66  57  72 NE5       30.04R
MIDWAY NOS*      N/A     72 N/A N/A MISG      30.02S
FRENCH FRIGATE NOT AVBL
$$

PHZ110>124-180-090800-
BUOY REPORTS

STATION/POSITION TIME  TEMP    WIND        PRES    WAVE   SWELL
                       AIR SEA DIR/SP/G            HT/PER HT/DIR
                 (UTC) (F)     (DEG/KT/KT) (MB)    (FT/S) (FT/D)
BUOY 51001       0720   75 78  320/  4/  8 1013.5
BUOY 51101       0650   76 78  290/  4/  4 1014.0R   6/11   7
BUOY 51100       NOT AVBL
BUOY 51002       0720   78 78  100/ 14/ 17 1013.3
BUOY 51003       0650   75 79   60/ 17/ 19 1013.5R   6/13   3/310
BUOY 51004       0650   76 79  100/ 12/ 16 1014.5R   6/14   5/350
BARBERS PT BUOY  NOT AVBL
WAIMEA BAY BUOY  NOT AVBL
KAILUA BAY BUOY  0704      78                N/A     5/11   3/ 10
LANAI BUOY       0715      78                N/A     2/13   2/280
BARBERS PT 2     0709      78                N/A     3/13   2/290
PAUWELA MAUI     0709      77                N/A     4/13   3/330
HILO             0712      78                N/A     5/14   3/340
KANEOHE BAY BUOY 0706      77                N/A     4/12   3/ 20
HANALEI KAUAI    0722      77                N/A     5/13   3/300
KAHULUI HARBOR   0706   73 78  220/  2/  3 1014.5
HONOLULU HARBOR  0706   73 78   CALM  /  2 1015.4
KILO NALU        NOT AVBL
HILO HARBOR      0706   72 76  230/  2/  3 1015.0
MOKUOLOE         0636   71     280/  2/  3   N/A
NAWILIWILI       0718      80                N/A
WHOTS BUOY       NOT AVBL
BUOY 51028       NOT AVBL
$$

......................KEY........................................
  SKY/WX - SKY CONDITIONS/PRESENT WEATHER
  TMP    - TEMPERATURE IN FAHRENHEIT
  DWPT   - DEWPOINT IN FAHRENHEIT
  RH     - RELATIVE HUMIDITY IN PERCENT
  WIND   - DIRECTION AND SPEED /MPH FOR ISLANDS...KTS FOR BUOYS/
  PRES   - MEAN SEA LEVEL PRESSURE IN INCHES OF HG
  VSB    - VISIBILITY IN MILES
  HX     - HEAT INDEX
  WCI    - WIND CHILL INDEX
  VRB    - VARIABLE WIND DIRECTION
  N/A    - NOT AVAILABLE




USA.gov is the U.S. government's official web portal to all federal, state and local government web resources and services.